| time (UTC) | temp F | wind direction | speed MPH | gust MPH | rain 1hr in | rain 24hr in | rain mn in | humidity % | barometer mb |
| 20260507063243 | 48 | 0.0 | 0.0 | 0.00 | 0.00 | 0.00 | 99 | 1007.6 | |
| 20260507061204 | 46 | 0.0 | 0.0 | 0.00 | 0.00 | 0.00 | 99 | 1007.5 | |
| 20260507055126 | 46 | 0.0 | 0.0 | 0.00 | 0.00 | 0.00 | 99 | 1007.3 | |
| 20260507053103 | 46 | 0.0 | 0.0 | 0.00 | 0.00 | 0.00 | 99 | 1007.1 | |
| 20260507051010 | 45 | 0.0 | 0.0 | 0.00 | 0.00 | 0.00 | 99 | 1006.8 | |
| 20260507044933 | 45 | 0.0 | 0.0 | 0.00 | 0.00 | 0.00 | 99 | 1006.6 | |
| 20260507042856 | 45 | 0.0 | 0.0 | 0.00 | 0.00 | 0.00 | 99 | 1006.5 | |
| 20260507040818 | 45 | 0.0 | 0.0 | 0.00 | 0.00 | 0.00 | 99 | 1006.3 | |
| 20260507034741 | 45 | 0.0 | 0.0 | 0.00 | 0.00 | 0.00 | 99 | 1006.2 | |
| 20260507032703 | 45 | 0.0 | 0.0 | 0.00 | 0.00 | 0.00 | 99 | 1006.1 | |
| 20260507030625 | 45 | 0.0 | 0.0 | 0.00 | 0.00 | 0.00 | 99 | 1006.0 | |
| 20260507024548 | 45 | 0.0 | 0.0 | 0.00 | 0.00 | 0.00 | 99 | 1006.0 | |
| 20260507022511 | 45 | 0.0 | 0.0 | 0.00 | 0.00 | 0.00 | 99 | 1006.0 | |
| 20260507020433 | 45 | 0.0 | 0.0 | 0.00 | 0.00 | 0.00 | 99 | 1005.9 | |
| 20260507014356 | 45 | 0.0 | 0.0 | 0.00 | 0.00 | 0.00 | 99 | 1005.8 | |
| 20260507012320 | 45 | 0.0 | 0.0 | 0.00 | 0.00 | 0.00 | 99 | 1005.8 | |
| 20260507010243 | 46 | 0.0 | 0.0 | 0.00 | 0.00 | 0.00 | 99 | 1005.7 | |
| 20260507004206 | 46 | 0.0 | 0.0 | 0.00 | 0.00 | 0.00 | 99 | 1005.9 | |
| 20260507002129 | 46 | 0.0 | 0.0 | 0.00 | 0.00 | 0.00 | 99 | 1005.8 | |
| 20260507000051 | 47 | 0.0 | 0.0 | 0.00 | 0.00 | 0.00 | 99 | 1005.8 | |
| 20260506234014 | 47 | 0.0 | 0.0 | 0.00 | 0.00 | 0.00 | 99 | 1005.7 | |
| 20260506231936 | 47 | 0.0 | 0.0 | 0.00 | 0.00 | 0.00 | 99 | 1005.5 | |
| 20260506225859 | 50 | 0.0 | 0.0 | 0.00 | 0.00 | 0.00 | 99 | 1005.3 | |
| 20260506223820 | 48 | 0.0 | 0.0 | 0.00 | 0.00 | 0.00 | 99 | 1005.4 | |
| 20260506221743 | 49 | 0.0 | 0.0 | 0.00 | 0.00 | 0.00 | 99 | 1005.4 | |
| 20260506215706 | 49 | 0.0 | 0.0 | 0.00 | 0.00 | 0.00 | 99 | 1005.4 | |
| 20260506213630 | 50 | 0.0 | 0.0 | 0.00 | 0.00 | 0.00 | 99 | 1005.2 | |
| 20260506203508 | 49 | 0.0 | 0.0 | 0.00 | 0.00 | 0.00 | 99 | 1004.9 | |
| 20260506201430 | 49 | 0.0 | 0.0 | 0.00 | 0.00 | 0.00 | 99 | 1004.4 | |
| 20260506195353 | 49 | 0.0 | 0.0 | 0.00 | 0.00 | 0.00 | 99 | 1004.2 | |
| 20260506193316 | 49 | 0.0 | 0.0 | 0.00 | 0.00 | 0.00 | 99 | 1003.7 | |
| 20260506191239 | 50 | 0.0 | 0.0 | 0.00 | 0.00 | 0.00 | 99 | 1003.4 | |
| 20260506185202 | 50 | 0.0 | 0.0 | 0.00 | 0.00 | 0.00 | 99 | 1003.1 | |
| 20260506181048 | 51 | 0.0 | 0.0 | 0.00 | 0.00 | 0.00 | 99 | 1002.5 | |
| 20260506175011 | 51 | 0.0 | 0.0 | 0.00 | 0.00 | 0.00 | 99 | 1002.0 | |
| 20260506172934 | 51 | 0.0 | 0.0 | 0.00 | 0.00 | 0.00 | 99 | 1001.6 | |
| 20260506170856 | 52 | 0.0 | 0.0 | 0.00 | 0.00 | 0.00 | 99 | 1001.7 | |
| 20260506164819 | 52 | 0.0 | 0.0 | 0.00 | 0.00 | 0.00 | 99 | 1001.7 | |
| 20260506162744 | 53 | 0.0 | 0.0 | 0.00 | 0.00 | 0.00 | 99 | 1001.5 | |
| 20260506160709 | 55 | 0.0 | 0.0 | 0.00 | 0.00 | 0.00 | 99 | 1001.3 | |
| 20260506154632 | 56 | 0.0 | 0.0 | 0.00 | 0.00 | 0.00 | 96 | 1001.2 | |
| 20260506152556 | 58 | 0.0 | 0.0 | 0.00 | 0.00 | 0.00 | 82 | 1001.3 | |
| 20260506150520 | 59 | 0.0 | 0.0 | 0.00 | 0.00 | 0.00 | 75 | 1001.5 | |
| 20260506144444 | 60 | 0.0 | 0.0 | 0.00 | 0.00 | 0.00 | 74 | 1001.6 | |
| 20260506142407 | 60 | 0.0 | 0.0 | 0.00 | 0.00 | 0.00 | 78 | 1001.4 | |
| 20260506140329 | 59 | 0.0 | 0.0 | 0.00 | 0.00 | 0.00 | 81 | 1001.4 | |
| 20260506132214 | 58 | 0.0 | 0.0 | 0.00 | 0.00 | 0.00 | 87 | 1001.6 | |
| 20260506130136 | 59 | 0.0 | 0.0 | 0.00 | 0.00 | 0.00 | 76 | 1001.8 | |
| 20260506124057 | 59 | 0.0 | 0.0 | 0.00 | 0.00 | 0.00 | 69 | 1001.6 | |
| 20260506122021 | 59 | 0.0 | 0.0 | 0.00 | 0.00 | 0.00 | 68 | 1001.5 | |
| 20260506115945 | 61 | 0.0 | 0.0 | 0.00 | 0.00 | 0.00 | 65 | 1001.7 | |
| 20260506113905 | 60 | 0.0 | 0.0 | 0.00 | 0.00 | 0.00 | 71 | 1001.9 | |
| 20260506111827 | 59 | 0.0 | 0.0 | 0.00 | 0.00 | 0.00 | 80 | 1002.0 | |
| 20260506105748 | 59 | 0.0 | 0.0 | 0.00 | 0.00 | 0.00 | 83 | 1002.2 | |
| 20260506103711 | 58 | 0.0 | 0.0 | 0.00 | 0.00 | 0.00 | 91 | 1002.1 | |
| 20260506101633 | 57 | 0.0 | 0.0 | 0.00 | 0.00 | 0.00 | 98 | 1002.4 | |
| 20260506095555 | 56 | 0.0 | 0.0 | 0.00 | 0.00 | 0.00 | 99 | 1002.2 | |
| 20260506093517 | 56 | 0.0 | 0.0 | 0.00 | 0.00 | 0.00 | 99 | 1002.2 | |
| 20260506091438 | 54 | 0.0 | 0.0 | 0.00 | 0.00 | 0.00 | 99 | 1002.1 | |
| 20260506085401 | 54 | 0.0 | 0.0 | 0.00 | 0.00 | 0.00 | 99 | 1002.1 | |
| 20260506083324 | 54 | 0.0 | 0.0 | 0.00 | 0.00 | 0.00 | 99 | 1002.2 | |
| 20260506081246 | 54 | 0.0 | 0.0 | 0.00 | 0.00 | 0.00 | 99 | 1002.0 | |
| 20260506073132 | 51 | 0.0 | 0.0 | 0.00 | 0.00 | 0.00 | 99 | 1002.4 | |
| 20260506071051 | 47 | 0.0 | 0.0 | 0.00 | 0.00 | 0.00 | 99 | 1002.5 |